Weather History for KLTS - November, 2013

Change the Weather History Date:

Tuesday, November 19, 2013

  Actual Average Record
Temperature  
Mean Temperature 58 °F -  
Max Temperature 66 °F 58 °F 82 °F (2007)
Min Temperature 49 °F 36 °F 21 °F (2014)
Degree Days  
Heating Degree Days 8    
Growing Degree Days 8 (Base 50)    
Moisture  
Dew Point 37 °F    
Average Humidity 47    
Maximum Humidity 61    
Minimum Humidity 35    
Precipitation  
Precipitation 0.00 in - - ()
Sea Level Pressure  
Sea Level Pressure 30.03 in    
Wind  
Wind Speed 10 mph (SE)    
Max Wind Speed 21 mph    
Max Gust Speed 25 mph    
Visibility 10 miles    
Events Rain    
Averages and records for this station are not official NWS values.
T = Trace of Precipitation, MM = Missing Value Source: NWS Daily Summary

Daily Weather History Graph

Daily Weather History Graph

Search for Another Location

Airport or City:

Trip Planner

Search our weather history database for the weather conditions in past years. The results will help you decide how hot, cold, wet, or windy it might be!

Date:

Astronomy

Nov. 19, 2013 Rise Set
Actual Time 7:14 AM CST 5:29 PM CST
Civil Twilight 6:47 AM CST 5:56 PM CST
Nautical Twilight 6:17 AM CST 6:27 PM CST
Astronomical Twilight 5:47 AM CST 6:57 PM CST
Moon 7:22 PM CST (11/19) 8:54 AM CST (11/19)
Length of Visible Light 11h 08m
Length of Day
10h 14m
Waning Gibbous, 96% of the Moon is Illuminated
Nov 19
Waning Gibbous
Nov 25
Last Quarter
Dec 2
New
Dec 9
First Quarter
Dec 17
Full

Hourly Weather History & Observations

Time (CST) Temp. Dew Point Humidity Pressure Visibility Wind Dir Wind Speed Gust Speed Precip Events Conditions
12:58 AM 52.3 °F 33.8 °F 49% 30.15 in 10.0 mi ESE 3.5 mph - N/A   Scattered Clouds
1:58 AM 51.8 °F 34.7 °F 52% 30.14 in 10.0 mi Calm Calm - N/A   Scattered Clouds
2:03 AM 51.8 °F 35.6 °F 54% 30.15 in 10.0 mi Calm Calm - N/A   Mostly Cloudy
2:53 AM 51.8 °F 35.6 °F 54% 30.14 in 10.0 mi East 4.6 mph - N/A   Mostly Cloudy
2:58 AM 51.8 °F 35.6 °F 54% 30.13 in 10.0 mi ESE 5.8 mph - N/A   Mostly Cloudy
3:58 AM 51.6 °F 35.1 °F 53% 30.12 in 10.0 mi ESE 4.6 mph - N/A   Overcast
4:58 AM 51.8 °F 34.9 °F 53% 30.12 in 10.0 mi SE 6.9 mph - N/A   Mostly Cloudy
5:58 AM 50.5 °F 35.6 °F 57% 30.11 in 10.0 mi SE 9.2 mph - N/A   Overcast
6:28 AM 51.8 °F 35.6 °F 54% 30.11 in 10.0 mi SE 12.7 mph - N/A   Overcast
6:58 AM 52.7 °F 35.2 °F 52% 30.11 in 10.0 mi SE 11.5 mph - N/A   Overcast
7:02 AM 51.8 °F 35.6 °F 54% 30.11 in 10.0 mi SE 10.4 mph - N/A Rain Light Rain
7:12 AM 51.8 °F 35.6 °F 54% 30.11 in 10.0 mi SE 10.4 mph - N/A   Overcast
7:27 AM 50.0 °F 35.6 °F 58% 30.11 in 10.0 mi SE 10.4 mph - N/A   Scattered Clouds
7:58 AM 49.3 °F 36.5 °F 61% 30.12 in 10.0 mi SE 6.9 mph - 0.00 in   Clear
8:34 AM 53.6 °F 37.4 °F 54% 30.12 in 10.0 mi SE 13.8 mph - N/A   Overcast
8:58 AM 54.9 °F 37.2 °F 51% 30.12 in 10.0 mi SE 13.8 mph - N/A   Overcast
9:48 AM 57.2 °F 37.4 °F 48% 30.11 in 10.0 mi SE 16.1 mph - N/A   Overcast
9:53 AM 57.2 °F 37.4 °F 48% 30.11 in 10.0 mi SE 17.3 mph - N/A   Overcast
9:58 AM 57.6 °F 36.9 °F 46% 30.10 in 10.0 mi SE 16.1 mph - N/A   Overcast
10:30 AM 59.0 °F 37.4 °F 45% 30.10 in 10.0 mi SE 20.7 mph 25.3 mph N/A   Overcast
10:58 AM 60.8 °F 36.9 °F 41% 30.08 in 10.0 mi SSE 20.7 mph - N/A   Overcast
11:28 AM 60.8 °F 37.4 °F 42% 30.07 in 10.0 mi SSE 18.4 mph - N/A   Overcast
11:33 AM 62.6 °F 37.4 °F 39% 30.07 in 10.0 mi SSE 19.6 mph - N/A   Overcast
11:58 AM 62.4 °F 37.6 °F 40% 30.05 in 10.0 mi SSE 17.3 mph - N/A   Overcast
12:58 PM 63.3 °F 38.1 °F 39% 30.00 in 10.0 mi SSE 18.4 mph - N/A   Overcast
1:08 PM 64.4 °F 37.4 °F 37% 30.00 in 10.0 mi SSE 16.1 mph - N/A   Overcast
1:18 PM 64.4 °F 37.4 °F 37% 30.00 in 10.0 mi SSE 17.3 mph - N/A   Overcast
1:58 PM 64.4 °F 37.6 °F 37% 29.95 in 10.0 mi SE 18.4 mph - N/A   Overcast
2:58 PM 64.6 °F 38.1 °F 38% 29.93 in 10.0 mi SSE 19.6 mph - N/A   Overcast
3:18 PM 66.2 °F 37.4 °F 35% 29.94 in 10.0 mi SSE 20.7 mph - N/A   Scattered Clouds
3:58 PM 64.4 °F 38.1 °F 38% 29.92 in 10.0 mi SE 19.6 mph - N/A   Clear
4:58 PM 63.5 °F 40.3 °F 43% 29.90 in 10.0 mi SE 18.4 mph 25.3 mph N/A   Scattered Clouds
5:58 PM 61.0 °F 38.7 °F 44% 29.90 in 10.0 mi SE 16.1 mph - N/A   Mostly Cloudy
6:58 PM 58.5 °F 37.4 °F 45% 29.90 in 10.0 mi ESE 11.5 mph - N/A   Partly Cloudy
7:58 PM 56.7 °F 35.2 °F 45% 29.90 in 10.0 mi ESE 15.0 mph - N/A   Clear
8:58 PM 57.4 °F 34.7 °F 43% 29.89 in 10.0 mi SE 18.4 mph - N/A   Clear
9:58 PM 56.3 °F 35.6 °F 46% 29.89 in 10.0 mi SE 16.1 mph - N/A   Clear
10:23 PM 57.2 °F 35.6 °F 44% 29.91 in 10.0 mi SE 13.8 mph - N/A   Mostly Cloudy
10:28 PM 57.2 °F 35.6 °F 44% 29.91 in 10.0 mi SE 12.7 mph - N/A   Mostly Cloudy
10:58 PM 56.3 °F 36.5 °F 47% 29.89 in 10.0 mi SE 15.0 mph - N/A   Scattered Clouds
11:08 PM 57.2 °F 37.4 °F 48% 29.90 in 10.0 mi SE 16.1 mph - N/A   Mostly Cloudy
11:58 PM 56.7 °F 37.4 °F 49% 29.88 in 10.0 mi SE 17.3 mph - N/A   Mostly Cloudy